Nouvelle, Canada
Current Conditions -  °F | °C
As of 10:00 PM on Sunday 23 Nov 2014 (Local Time) from CZBF Reporting Station
Overcast Overcast  
Wind Chill: 32°   Ceiling: 4000
Heat Index: 32°   Visibility: 15mi
Dew Point: 28°   Wind: 2mph
Humidity: 87%   Direction: 230°SW
Pressure: 30.14"   Gusts: NA
Location:  48.13°N, 66.3°W
Report Text: CZBF 240300Z 23002KT 15SM OVC040 00/M02 A3014 RMK SC8 SLP208
Loading
Personal Weather Stations






























Interactive Weather Map New forecast layout! Learn more

10-Day Weather Forecast

Advertisements
Track Severe Weather on mobile